User: anonymous
Location: Caltech
(34.1382°N, 118.1253°W)
Time: 23:41:16
(UTC-07:00)
Language:

IRS-1A Rocket - Orbit

View from above orbital plane
View from above orbital plane
View from above satellite
View from above satellite

Ground track
Ground track

The orbit data is extracted from the following two-line orbital elements,

1 18961U 88021B   14105.90680459 -.00000184  00000-0 -91707-4 0  5939
2 18961 099.2787 078.4511 0054650 160.8185 253.0881 14.00754796333261
Epoch (UTC): 15 April 2014 21:45:47
Eccentricity: 0.0054650
inclination: 99.2787°
perigee height: 851 km
apogee height: 931 km
right ascension of ascending node: 78.4511°
argument of perigee: 160.8185°
revolutions per day: 14.00754796
mean anomaly at epoch: 253.0881°
orbit number at epoch: 33326

The dashed part of the orbit path shows where the satellite is in the earth's shadow,  

DLR